This demonstration page uses our WeatherBlox Daily Observations layout. Learn more.

Left ArrowRight Arrow

Hourly Observations for January 30, 2022

Temp ( °F °C ) Dew Point ( °F °C ) Humidity (%) Winds ( mph kmh ) Pressure ( in mb ) Visibility ( mi km ) Precip ( " mm )
12:53 am 00:53 Clear 35 1.7 10 -12.2 35 35 Calm 30.14 1021 10 16 0.00 0.00
1:53 am 01:53 Clear 29 -1.7 5 -15 36 36 N 9 15 30.13 1020 10 16 0.00 0.00
2:53 am 02:53 Clear 27 -2.8 5 -15 39 39 NNE 5 7 30.11 1020 10 16 0.00 0.00
3:53 am 03:53 Clear 27 -2.8 6 -14.4 41 41 ENE 3 6 30.09 1019 10 16 0.00 0.00
4:53 am 04:53 Clear 26 -3.3 7 -13.9 44 44 N 7 11 30.08 1019 10 16 0.00 0.00
5:53 am 05:53 Clear 26 -3.3 7 -13.9 44 44 N 5 7 30.07 1018 10 16 0.00 0.00
6:53 am 06:53 Clear 26 -3.3 7 -13.9 44 44 N 7 11 30.08 1019 10 16 0.00 0.00
7:53 am 07:53 Sunny 25 -3.9 8 -13.3 48 48 N 7 11 30.11 1020 10 16 0.00 0.00
8:53 am 08:53 Sunny 34 1.1 14 -10 44 44 Calm 30.10 1019 10 16 0.00 0.00
9:53 am 09:53 Sunny 44 6.7 21 -6.1 40 40 Calm 30.09 1019 10 16 0.00 0.00
10:53 am 10:53 Sunny 50 10 22 -5.6 33 33 SE 3 6 30.08 1019 10 16 0.00 0.00
11:53 am 11:53 Sunny 56 13.3 22 -5.6 27 27 S 5 7 30.06 1018 10 16 0.00 0.00
12:53 pm 12:53 Mostly Cloudy 59 15 24 -4.4 26 26 Calm 30.03 1017 10 16 0.00 0.00
1:53 pm 13:53 Sunny 63 17.2 26 -3.3 25 25 SSE 9 15 29.97 1015 10 16 0.00 0.00
2:53 pm 14:53 Mostly Cloudy 64 17.8 28 -2.2 26 26 SSE 9 15 29.94 1014 10 16 0.00 0.00
3:53 pm 15:53 Sunny 67 19.4 29 -1.7 24 24 ESE 13 20 29.90 1013 10 16 0.00 0.00
4:53 pm 16:53 Mostly Cloudy 66 18.9 29 -1.7 25 25 SE 7 11 29.90 1012 10 16 0.00 0.00
5:53 pm 17:53 Cloudy 65 18.3 30 -1.1 27 27 ESE 6 9 29.89 1012 10 16 0.00 0.00
6:53 pm 18:53 Mostly Cloudy 61 16.1 30 -1.1 31 31 NE 7 11 29.92 1013 10 16 0.00 0.00
7:53 pm 19:53 Partly Cloudy 58 14.4 29 -1.7 33 33 ENE 6 9 29.95 1014 10 16 0.00 0.00
8:53 pm 20:53 Cloudy with Light Rain 58 14.4 39 3.9 50 50 SSW 7 11 30.00 1016 10 16 0.00 0.00
9:23 pm 21:23 Mostly Cloudy 55 12.8 40 4.4 57 57 SE 6 9 29.98 1015 10 16 0.00 0.00
9:53 pm 21:53 Partly Cloudy 51 10.6 43 6.1 74 74 NNW 7 11 30.01 1016 10 16 0.00 0.00
10:53 pm 22:53 Clear 52 11.1 41 5 66 66 E 9 15 29.96 1014 10 16 0.00 0.00
11:53 pm 23:53 Clear 50 10 40 4.4 68 68 SE 10 17 29.96 1014 10 16 0.00 0.00

Powered by AerisWeather